Location: Cicognara
(44.9500°N, 10.4667°E)
Time: 14:32:57
(UTC+00:00)

Cosmos 1869 - Pass Details

Date: 20 June 2021
Orbit: 518 x 563 km, 82.5° (Epoch: 02 August)

Event Time Altitude Azimuth Distance (km) Brightness Sun altitude
Rises 23:31:50 0° 353° (N) 2,766 8.4 -21.6°
Reaches altitude 10° 23:34:02 10° 356° (N) 1,863 7.2 -21.5°
Maximum altitude 23:38:08 70° 80° (E) 599 3.4 -21.5°
Enters shadow 23:38:39 61° 129° (SE) 638 3.4 -21.5°
